Regional Weather Roundup
Issued by NWS

Home | Current Version | Previous Version | Text Only | Print | Product List | Glossary On
Versions: 1 2 3 4 5 6 7 8 9 10 11 12 13 14 15 16 17 18 19 20 21 22 23 24 25 26 27
000
ASUS42 KFFC 311103
RWRGA
WEATHER ROUNDUP FOR GEORGIA
NATIONAL WEATHER SERVICE PEACHTREE CITY GA
700 AM EDT FRI OCT 31 2014

NOTE: "FAIR" INDICATES FEW OR NO CLOUDS BELOW 12,000 FEET WITH NO
SIGNIFICANT WEATHER AND/OR OBSTRUCTIONS TO VISIBILITY.

* = USE WITH CAUTION. THE STATIONS MARKED WITH AN ASTERISK MAY NOT
REPORT WEATHER SUCH AS PRECIPITATION, FOG, OR THUNDER AND ARE NOT
QUALITY CONTROLLED BY NWS.

THE REMARK "TC" DENOTES TEMPERATURE READING IN DEGREES CELSIUS.

GAZ001>058-311200-
NORTH GEORGIA

CITY           SKY/WX    TMP DP  RH WIND       PRES   REMARKS
ATLANTA        MOCLDY    45  40  82 NW9       29.93S
ATHENS         CLEAR     41  39  93 CALM      29.92S
CHAMBLEE       CLEAR     40  37  89 CALM      29.93S
PEACHTREE CITY PTCLDY    44  41  89 NW5       29.95S
ROME           CLOUDY    45  43  93 CALM      29.96R
WEST ATLANTA   CLEAR     44  39  82 NW3       29.94S
GAINESVILLE    CLEAR     43  39  86 CALM      29.94R
CARTERSVILLE   PTCLDY    40  37  89 CALM      29.97S


CITY           SKY/WX    TMP DP  RH WIND       PRES   REMARKS
DALTON*        CLOUDY    45  43  93 NW5       29.97S
LAWRENCEVILLE* CLEAR     41  34  75 CALM      29.92
MARIETTA       MOCLDY    42  40  93 W6        29.94R
KENNESAW*      CLEAR     43  37  81 CALM      29.95
$$

GAZ059>098-102>109-311200-
CENTRAL GEORGIA

CITY           SKY/WX    TMP DP  RH WIND       PRES   REMARKS
AUGUSTA-BUSH   CLEAR     39  38  96 CALM      29.91F
AUGUSTA-DANIEL CLEAR     48  42  80 CALM      29.92R
COLUMBUS       CLEAR     48  40  73 N6        29.95R
MACON          CLEAR     40  40 100 CALM      29.92S
ROBINS AFB     CLEAR     43  40  90 N5        29.92R


CITY           SKY/WX    TMP DP  RH WIND       PRES   REMARKS
LAGRANGE*      PTCLDY    40  40  99 CALM      29.95S FOG
SYLVANIA*      CLEAR     51  50  97 CALM      29.91R
MILLEDGEVILLE* CLEAR     43  43 100 CALM      29.92F
$$

GAZ099>101-110>166-311200-
SOUTH GEORGIA

CITY           SKY/WX    TMP DP  RH WIND       PRES   REMARKS
SAVANNAH       CLEAR     53  50  89 NW3       29.89S
VALDOSTA       CLEAR     45  39  79 CALM      29.91R
ALMA           MOCLDY    50  45  83 NW7       29.90S
ST SIMONS      CLEAR     59  57  93 N5        29.87S
FT STEWART     PTCLDY    51  49  95 CALM      29.88R
ALBANY         CLEAR     45  42  89 CALM      29.95R
HUNTER AFB     CLEAR     56  54  94 N5        29.86S
MOODY AFB      CLEAR     48  43  84 N7        29.90R
BRUNSWICK      CLEAR     57  54  88 NW3       29.88S


CITY           SKY/WX    TMP DP  RH WIND       PRES   REMARKS
BAINBRIDGE*    CLEAR     45  43  93 CALM      29.94R
MOULTRIE*      CLEAR     46  45  93 CALM      29.92S
VIDALIA*       CLEAR     50  46  87 CALM      29.90F
WAYCROSS*      MOCLDY    53  50  89 CALM      29.89F
DOUGLAS*       PTCLDY    54  43  66 N5        29.92S
$$



USA.gov is the U.S. government's official web portal to all federal, state and local government web resources and services.